Harvey, ND

6:32 PM CDT on July 20, 2017 (GMT -0500)
Harvey

Weather History for K5H4 - December, 2013

Change the Weather History Date:

Friday, December 13, 2013

  Actual Average (KRUG) Record (KRUG)
Temperature  
Mean Temperature -4 °F -  
Max Temperature 0 °F 20 °F 39 °F (2014)
Min Temperature -7 °F 3 °F -23 °F (1989)
Degree Days  
Heating Degree Days 68    
Moisture  
Dew Point -10 °F    
Average Humidity 79    
Maximum Humidity 85    
Minimum Humidity 71    
Precipitation  
Precipitation 0.04 in - - ()
Sea Level Pressure  
Sea Level Pressure 30.23 in    
Wind  
Wind Speed 15 mph (East)    
Max Wind Speed 18 mph    
Max Gust Speed -    
Visibility 7 miles    
Events Snow    
Averages and records for this station are not official NWS values.
T = Trace of Precipitation, MM = Missing Value Source: NWS Daily Summary

Daily Weather History Graph

Daily Weather History Graph

Search for Another Location

Airport or City:

Trip Planner

Search our weather history database for the weather conditions in past years. The results will help you decide how hot, cold, wet, or windy it might be!

Date:

Astronomy

Dec. 13, 2013 Rise Set
Actual Time 8:20 AM CST 4:47 PM CST
Civil Twilight 7:44 AM CST 5:23 PM CST
Nautical Twilight 7:05 AM CST 6:03 PM CST
Astronomical Twilight 6:27 AM CST 6:40 PM CST
Moon 2:41 PM CST (12/13) 4:33 AM CST (12/13)
Length of Visible Light 9h 39m
Length of Day
8h 26m
Waxing Gibbous, 88% of the Moon is Illuminated
Dec 13
Waxing Gibbous
Dec 17
Full
Dec 25
Last Quarter
Jan 1
New
Jan 7
First Quarter

Hourly Weather History & Observations

Time (CST) Temp. Windchill Dew Point Humidity Pressure Visibility Wind Dir Wind Speed Gust Speed Precip Events Conditions
12:15 AM -0.4 °F -21.2 °F -4.0 °F 85% 30.16 in 10.0 mi East 17.3 mph - N/A   Overcast
12:35 AM -0.4 °F -21.2 °F -4.0 °F 85% 30.16 in 10.0 mi East 17.3 mph - N/A   Overcast
12:55 AM -0.4 °F -19.9 °F -4.0 °F 85% 30.15 in 10.0 mi East 15.0 mph - N/A   Overcast
1:15 AM -0.4 °F -20.5 °F -4.0 °F 85% 30.15 in 10.0 mi East 16.1 mph - N/A   Overcast
1:35 AM -0.4 °F -19.9 °F -4.0 °F 85% 30.15 in 10.0 mi East 15.0 mph - N/A   Overcast
1:55 AM -0.4 °F -21.2 °F -4.0 °F 85% 30.15 in 10.0 mi East 17.3 mph - N/A   Overcast
2:15 AM -0.4 °F -20.5 °F -5.8 °F 78% 30.15 in 10.0 mi East 16.1 mph - N/A   Overcast
2:35 AM -0.4 °F -21.2 °F -5.8 °F 78% 30.15 in 10.0 mi East 17.3 mph - N/A   Overcast
2:55 AM -2.2 °F -24.1 °F -7.6 °F 78% 30.15 in 5.0 mi East 18.4 mph - N/A   Haze
3:15 AM -2.2 °F -22.9 °F -7.6 °F 78% 30.16 in 10.0 mi East 16.1 mph - N/A   Overcast
3:35 AM -2.2 °F -22.9 °F -7.6 °F 78% 30.16 in 10.0 mi East 16.1 mph - N/A   Overcast
3:55 AM -2.2 °F -22.9 °F -9.4 °F 71% 30.16 in 10.0 mi East 16.1 mph - N/A   Overcast
4:15 AM -4.0 °F -26.4 °F -9.4 °F 78% 30.15 in 8.0 mi East 18.4 mph - N/A   Overcast
4:35 AM -4.0 °F -25.8 °F -9.4 °F 78% 30.16 in 10.0 mi East 17.3 mph - N/A   Overcast
4:55 AM -4.0 °F -25.8 °F -11.2 °F 71% 30.17 in 8.0 mi East 17.3 mph - N/A   Overcast
5:15 AM -4.0 °F -23.0 °F -9.4 °F 78% 30.17 in 10.0 mi East 12.7 mph - N/A   Overcast
5:35 AM -4.0 °F -24.5 °F -11.2 °F 71% 30.17 in 10.0 mi East 15.0 mph - N/A   Overcast
5:55 AM -5.8 °F -28.2 °F -11.2 °F 77% 30.18 in 10.0 mi ENE 17.3 mph - N/A   Overcast
6:15 AM -5.8 °F -28.2 °F -11.2 °F 77% 30.18 in 10.0 mi East 17.3 mph - N/A   Overcast
6:35 AM -5.8 °F -27.5 °F -11.2 °F 77% 30.18 in 9.0 mi East 16.1 mph - N/A   Overcast
6:55 AM -5.8 °F -27.5 °F -11.2 °F 77% 30.17 in 10.0 mi East 16.1 mph - N/A   Overcast
7:15 AM -5.8 °F -28.2 °F -11.2 °F 77% 30.18 in 10.0 mi East 17.3 mph - N/A   Overcast
7:35 AM -5.8 °F -26.8 °F -11.2 °F 77% 30.19 in 10.0 mi East 15.0 mph - N/A   Overcast
7:55 AM -5.8 °F -25.2 °F -11.2 °F 77% 30.21 in 10.0 mi ENE 12.7 mph - N/A   Overcast
8:15 AM -5.8 °F -26.0 °F -11.2 °F 77% 30.22 in 10.0 mi ENE 13.8 mph - N/A   Overcast
8:35 AM -7.6 °F -29.8 °F -11.2 °F 84% 30.23 in 9.0 mi East 16.1 mph - N/A Snow Light Snow
8:55 AM -7.6 °F -29.8 °F - N/A% 30.23 in 6.0 mi East 16.1 mph - N/A Snow Light Snow
9:15 AM -7.6 °F -28.3 °F -11.2 °F 84% 30.24 in 5.0 mi East 13.8 mph - N/A Snow Light Snow
9:35 AM -7.6 °F -27.5 °F - N/A% 30.24 in 4.0 mi East 12.7 mph - N/A Snow Light Snow
9:55 AM -7.6 °F -28.3 °F - N/A% 30.25 in 3.0 mi ENE 13.8 mph - N/A Snow Light Snow
10:15 AM -7.6 °F -28.3 °F -11.2 °F 84% 30.25 in 2.5 mi East 13.8 mph - N/A Snow Light Snow
10:35 AM -7.6 °F -29.8 °F - N/A% 30.25 in 2.5 mi East 16.1 mph - N/A   Overcast
10:55 AM -7.6 °F -29.8 °F -13.0 °F 77% 30.25 in 3.0 mi East 16.1 mph - N/A Snow Light Snow
11:15 AM -7.6 °F -29.1 °F -11.2 °F 84% 30.26 in 3.0 mi East 15.0 mph - N/A   Haze
11:35 AM -5.8 °F -25.2 °F -11.2 °F 77% 30.26 in 3.0 mi ENE 12.7 mph - N/A   Haze
11:55 AM -5.8 °F -25.2 °F -11.2 °F 77% 30.26 in 2.5 mi East 12.7 mph - N/A Snow Light Snow
12:15 PM -5.8 °F -26.8 °F - N/A% 30.26 in 1.2 mi East 15.0 mph - N/A Snow Light Snow
12:35 PM -7.6 °F -27.5 °F -11.2 °F 84% 30.25 in 1.5 mi East 12.7 mph - 0.01 in Snow Light Snow
12:55 PM -5.8 °F -25.2 °F -11.2 °F 77% 30.24 in 1.8 mi ENE 12.7 mph - 0.02 in Snow Light Snow
1:15 PM -5.8 °F -25.2 °F -11.2 °F 77% 30.25 in 6.0 mi ENE 12.7 mph - N/A   Haze
1:35 PM -5.8 °F -26.8 °F -11.2 °F 77% 30.25 in 10.0 mi ENE 15.0 mph - N/A   Mostly Cloudy
1:55 PM -4.0 °F -25.2 °F -11.2 °F 71% 30.24 in 10.0 mi ENE 16.1 mph - N/A   Overcast
2:15 PM -4.0 °F -25.2 °F -11.2 °F 71% 30.23 in 9.0 mi ENE 16.1 mph - N/A   Overcast
2:35 PM -4.0 °F -23.7 °F -11.2 °F 71% 30.24 in 8.0 mi ENE 13.8 mph - N/A Snow Light Snow
2:55 PM -5.8 °F -26.8 °F -11.2 °F 77% 30.25 in 8.0 mi ENE 15.0 mph - N/A Snow Light Snow
3:15 PM -5.8 °F -26.0 °F -11.2 °F 77% 30.25 in 5.0 mi ENE 13.8 mph - N/A Snow Light Snow
3:35 PM -5.8 °F -24.4 °F -11.2 °F 77% 30.25 in 2.0 mi ENE 11.5 mph - N/A Snow Light Snow
3:55 PM -5.8 °F -25.2 °F -11.2 °F 77% 30.26 in 5.0 mi ENE 12.7 mph - 0.01 in Snow Light Snow
4:15 PM -5.8 °F -23.4 °F -11.2 °F 77% 30.26 in 5.0 mi East 10.4 mph - N/A   Haze
4:35 PM -5.8 °F -22.4 °F -11.2 °F 77% 30.27 in 5.0 mi ENE 9.2 mph - N/A   Haze
4:55 PM -7.6 °F -25.7 °F - N/A% 30.28 in 5.0 mi ENE 10.4 mph - N/A Snow Light Snow
5:15 PM -7.6 °F -27.5 °F -11.2 °F 84% 30.28 in 7.0 mi East 12.7 mph - N/A   Overcast
5:35 PM -7.6 °F -27.5 °F -13.0 °F 77% 30.28 in 10.0 mi ENE 12.7 mph - N/A   Mostly Cloudy
5:55 PM -7.6 °F -26.6 °F -13.0 °F 77% 30.29 in 10.0 mi ENE 11.5 mph - N/A   Overcast
6:15 PM -7.6 °F -27.5 °F -11.2 °F 84% 30.29 in 10.0 mi ENE 12.7 mph - N/A Snow Light Snow
6:35 PM -7.6 °F -28.3 °F -13.0 °F 77% 30.29 in 2.5 mi East 13.8 mph - N/A Snow Light Snow
6:55 PM -7.6 °F -26.6 °F -13.0 °F 77% 30.29 in 3.0 mi East 11.5 mph - 0.01 in Snow Light Snow
7:15 PM -7.6 °F -25.7 °F -13.0 °F 77% 30.29 in 6.0 mi East 10.4 mph - N/A Snow Light Snow
7:35 PM -7.6 °F -23.4 °F -11.2 °F 84% 30.30 in 5.0 mi East 8.1 mph - N/A Snow Light Snow
7:55 PM -7.6 °F -26.6 °F -13.0 °F 77% 30.29 in 5.0 mi East 11.5 mph - N/A   Haze
8:15 PM -7.6 °F -25.7 °F -11.2 °F 84% 30.29 in 2.5 mi ESE 10.4 mph - N/A Snow Light Snow
8:35 PM -7.6 °F -25.7 °F -11.2 °F 84% 30.29 in 5.0 mi ESE 10.4 mph - N/A   Haze
8:55 PM -7.6 °F -24.6 °F - N/A% 30.29 in 5.0 mi ESE 9.2 mph - N/A   Haze
9:15 PM -7.6 °F -23.4 °F -11.2 °F 84% 30.30 in 10.0 mi ESE 8.1 mph - N/A   Mostly Cloudy
9:35 PM -5.8 °F -21.2 °F -11.2 °F 77% 30.29 in 10.0 mi ESE 8.1 mph - N/A   Overcast
9:55 PM -5.8 °F -21.2 °F - N/A% 30.28 in 10.0 mi SE 8.1 mph - N/A   Overcast
10:15 PM -7.6 °F -23.4 °F -11.2 °F 84% 30.27 in 10.0 mi SE 8.1 mph - N/A Snow Light Snow
10:35 PM -5.8 °F -19.9 °F -11.2 °F 77% 30.27 in 10.0 mi SE 6.9 mph - N/A Snow Light Snow
10:55 PM -5.8 °F -19.9 °F -11.2 °F 77% 30.27 in 10.0 mi SE 6.9 mph - N/A   Overcast
11:15 PM -5.8 °F -19.9 °F - N/A% 30.27 in 10.0 mi SE 6.9 mph - N/A   Overcast
11:35 PM -7.6 °F -22.1 °F - N/A% 30.27 in 10.0 mi SE 6.9 mph - N/A   Overcast
11:55 PM -5.8 °F -16.7 °F -11.2 °F 77% 30.28 in 10.0 mi SE 4.6 mph - N/A   Overcast